contact:dominique.lefevre@mio.osupytheas.fr, maurice.libes@osupytheas.fr, didier.mallarino@osupytheas.fr
Project:EMSO http://www.emso-fr.org/EMSO-France
Depth: 2436.0 m
Title:EMSO Ligure Ouest : Data MII capteur AQUADOPP
Date,Latitude,Longitude,X_East,Y_North,Z_Up,Amplitude_X,Amplitude_Y,Amplitude_Z,Batterie,SoundSpeed,Heading,Pitch,Roll,Pressure,TIS,Speed,Direction
, degrees North, degrees East, m.s-1, m.s-1,m.s-1, 1, 1, 1, Volt, m.s-1, degree, degree, degree, dbar, degree_C, m.s-1, degree
2024-04-13T00:04:03,42.805,6.029,-0.029,0.005,-0.004,103.0,103.0,101.0,13.3,1505.2,7.0,-0.8,1.8,2471.736,13.29,0.029,279.8
2024-04-13T00:07:03,42.805,6.029,-0.029,-0.009,0.0,103.0,104.0,101.0,13.4,1505.2,0.5,-0.7,1.8,2471.734,13.29,0.03,252.8
2024-04-13T00:10:03,42.805,6.029,-0.015,0.01,-0.001,105.0,104.0,101.0,13.3,1505.2,358.8,-0.8,1.8,2471.728,13.29,0.018,303.7
2024-04-13T00:13:03,42.805,6.029,-0.019,0.003,0.005,104.0,104.0,101.0,13.4,1505.2,8.5,-0.8,1.8,2471.724,13.29,0.019,279.0
2024-04-13T00:16:03,42.805,6.029,-0.037,0.019,-0.001,104.0,104.0,102.0,13.3,1505.2,7.5,-0.8,1.8,2471.729,13.29,0.041,297.2
2024-04-13T00:19:03,42.805,6.029,-0.011,0.016,0.026,103.0,103.0,101.0,13.4,1505.2,0.5,-0.8,1.9,2471.687,13.29,0.019,325.5
2024-04-13T00:22:03,42.805,6.029,-0.003,-0.011,0.023,105.0,104.0,102.0,13.4,1505.2,357.2,-0.7,1.8,2471.706,13.29,0.011,195.3
2024-04-13T00:25:03,42.805,6.029,-0.007,0.021,0.006,104.0,104.0,101.0,13.4,1505.2,7.9,-0.7,1.8,2471.698,13.29,0.022,341.6
2024-04-13T00:28:03,42.805,6.029,-0.02,0.025,-0.015,104.0,104.0,102.0,13.4,1505.2,352.7,-0.8,1.8,2471.7,13.29,0.032,321.3
2024-04-13T00:31:03,42.805,6.029,-0.031,0.033,-0.049,106.0,103.0,102.0,13.4,1505.2,7.6,-0.8,1.8,2471.677,13.29,0.045,316.8
2024-04-13T00:34:03,42.805,6.029,-0.044,0.024,0.0,104.0,104.0,101.0,13.4,1505.2,0.5,-0.8,1.8,2471.719,13.29,0.05,298.6
2024-04-13T00:37:03,42.805,6.029,-0.032,0.027,-0.009,104.0,103.0,101.0,13.4,1505.2,10.0,-0.8,1.8,2471.679,13.29,0.041,310.2
2024-04-13T00:40:03,42.805,6.029,-0.006,0.012,0.033,104.0,103.0,101.0,13.4,1505.2,352.8,-0.8,1.8,2471.679,13.29,0.013,333.4
2024-04-13T00:43:03,42.805,6.029,-0.024,0.015,-0.005,104.0,104.0,103.0,13.3,1505.2,359.4,-0.7,1.8,2471.698,13.29,0.028,302.0
2024-04-13T00:46:03,42.805,6.029,-0.028,0.018,0.0,104.0,103.0,101.0,13.4,1505.2,6.3,-0.7,1.8,2471.689,13.29,0.033,302.7
2024-04-13T00:49:03,42.805,6.029,-0.006,0.026,0.018,103.0,104.0,102.0,13.3,1505.2,4.6,-0.8,1.8,2471.716,13.29,0.026,347.0
2024-04-13T00:52:03,42.805,6.029,-0.04,0.017,0.002,103.0,104.0,100.0,13.3,1505.2,1.1,-0.8,1.9,2471.667,13.29,0.043,293.0
2024-04-13T00:55:03,42.805,6.029,-0.035,0.011,0.026,105.0,103.0,101.0,13.4,1505.2,352.1,-0.8,1.8,2471.653,13.29,0.036,287.4
2024-04-13T00:58:03,42.805,6.029,-0.008,-0.008,-0.007,104.0,102.0,103.0,13.3,1505.2,3.2,-0.7,1.8,2471.692,13.29,0.011,225.0
2024-04-13T01:04:03,42.805,6.029,-0.031,-0.01,-0.011,104.0,104.0,102.0,13.4,1505.2,358.8,-0.8,1.8,2471.729,13.29,0.032,252.1
2024-04-13T01:07:03,42.805,6.029,-0.014,0.012,0.022,104.0,106.0,102.0,13.4,1505.2,8.0,-0.7,1.8,2471.672,13.29,0.018,310.6
2024-04-13T01:10:03,42.805,6.029,-0.035,0.015,-0.016,105.0,104.0,102.0,13.4,1505.2,353.7,-0.8,1.8,2471.654,13.29,0.038,293.2
2024-04-13T01:13:03,42.805,6.029,-0.031,0.017,-0.012,103.0,101.0,103.0,13.4,1505.2,357.6,-0.8,1.8,2471.688,13.29,0.035,298.7
2024-04-13T01:16:03,42.805,6.029,-0.018,0.0,0.002,104.0,103.0,101.0,13.4,1505.2,7.3,-0.7,1.8,2471.687,13.29,0.018,270.0
2024-04-13T01:19:03,42.805,6.029,-0.019,0.017,0.011,105.0,103.0,102.0,13.4,1505.2,353.5,-0.8,1.8,2471.675,13.29,0.025,311.8
2024-04-13T01:22:03,42.805,6.029,-0.012,0.009,-0.028,103.0,104.0,102.0,13.4,1505.2,357.1,-0.7,1.8,2471.674,13.29,0.015,306.9
2024-04-13T01:25:03,42.805,6.029,-0.012,0.008,0.015,105.0,103.0,102.0,13.4,1505.2,359.4,-0.7,1.8,2471.696,13.29,0.014,303.7
2024-04-13T01:28:03,42.805,6.029,-0.019,0.025,-0.01,104.0,103.0,101.0,13.3,1505.2,0.0,-0.7,1.8,2471.655,13.29,0.031,322.8
2024-04-13T01:31:03,42.805,6.029,-0.022,0.011,0.008,103.0,103.0,102.0,13.4,1505.2,8.9,-0.8,1.8,2471.653,13.29,0.024,296.6
2024-04-13T01:34:03,42.805,6.029,-0.032,0.003,-0.026,103.0,103.0,102.0,13.3,1505.2,359.4,-0.8,1.8,2471.664,13.29,0.032,275.4
2024-04-13T01:37:03,42.805,6.029,-0.02,0.022,0.03,103.0,104.0,102.0,13.4,1505.2,1.7,-0.8,1.8,2471.713,13.29,0.029,317.7
2024-04-13T01:40:03,42.805,6.029,-0.016,0.023,-0.002,103.0,102.0,102.0,13.4,1505.2,8.5,-0.8,1.8,2471.665,13.29,0.028,325.2
2024-04-13T01:43:03,42.805,6.029,-0.022,-0.007,-0.012,104.0,102.0,101.0,13.4,1505.2,355.2,-0.8,1.8,2471.64,13.29,0.023,252.4
2024-04-13T01:46:03,42.805,6.029,-0.008,0.004,-0.027,103.0,102.0,102.0,13.4,1505.2,4.1,-0.8,1.8,2471.65,13.29,0.008,296.6
2024-04-13T01:49:03,42.805,6.029,-0.012,0.001,-0.001,103.0,103.0,101.0,13.4,1505.2,357.8,-0.7,1.8,2471.646,13.29,0.012,274.8
2024-04-13T01:52:03,42.805,6.029,-0.031,0.0,0.009,104.0,103.0,102.0,13.4,1505.2,9.1,-0.7,1.8,2471.68,13.29,0.03,270.0
2024-04-13T01:55:03,42.805,6.029,-0.017,0.023,0.025,104.0,101.0,101.0,13.4,1505.2,354.1,-0.8,1.8,2471.659,13.29,0.028,323.5
2024-04-13T01:58:03,42.805,6.029,-0.022,0.01,-0.012,102.0,105.0,102.0,13.4,1505.2,3.9,-0.7,1.8,2471.673,13.29,0.024,294.4
2024-04-13T02:04:03,42.805,6.029,-0.016,0.042,0.013,103.0,102.0,101.0,13.4,1505.2,8.6,-0.7,1.8,2471.693,13.29,0.044,339.1
2024-04-13T02:07:03,42.805,6.029,-0.034,0.033,0.015,104.0,104.0,100.0,13.4,1505.2,355.1,-0.8,1.8,2471.688,13.29,0.047,314.1
2024-04-13T02:10:03,42.805,6.029,-0.025,0.017,-0.022,103.0,103.0,101.0,13.4,1505.2,2.9,-0.8,1.8,2471.631,13.29,0.03,304.2
2024-04-13T02:13:03,42.805,6.029,-0.024,0.019,0.027,103.0,103.0,101.0,13.4,1505.2,357.8,-0.8,1.8,2471.701,13.29,0.03,308.4
2024-04-13T02:16:03,42.805,6.029,-0.01,0.024,0.024,102.0,102.0,102.0,13.4,1505.2,3.7,-0.7,1.8,2471.661,13.29,0.026,337.4
2024-04-13T02:19:03,42.805,6.029,-0.024,0.037,-0.01,104.0,103.0,101.0,13.4,1505.2,5.7,-0.7,1.8,2471.666,13.29,0.044,327.0
2024-04-13T02:22:03,42.805,6.029,-0.019,0.014,0.001,103.0,103.0,101.0,13.4,1505.2,5.8,-0.8,1.8,2471.663,13.29,0.023,306.4
2024-04-13T02:25:03,42.805,6.029,-0.033,0.014,-0.001,103.0,105.0,101.0,13.4,1505.2,355.9,-0.8,1.8,2471.668,13.29,0.035,293.0
2024-04-13T02:28:03,42.805,6.029,-0.031,0.03,0.0,104.0,103.0,100.0,13.4,1505.2,357.2,-0.7,1.8,2471.665,13.29,0.043,314.1
2024-04-13T02:31:03,42.805,6.029,-0.021,0.026,-0.014,103.0,104.0,101.0,13.4,1505.2,6.5,-0.8,1.8,2471.638,13.29,0.033,321.1
2024-04-13T02:34:03,42.805,6.029,-0.033,-0.005,-0.012,104.0,103.0,110.0,13.4,1505.2,357.6,-0.8,1.8,2471.675,13.29,0.033,261.4
2024-04-13T02:37:03,42.805,6.029,-0.013,0.024,0.014,103.0,103.0,104.0,13.4,1505.2,354.9,-0.8,1.8,2471.645,13.29,0.027,331.6
2024-04-13T02:40:03,42.805,6.029,-0.013,0.006,-0.007,104.0,104.0,103.0,13.3,1505.2,6.4,-0.8,1.8,2471.614,13.29,0.014,294.8
2024-04-13T02:43:03,42.805,6.029,-0.03,0.008,-0.016,104.0,102.0,101.0,13.4,1505.2,354.5,-0.7,1.8,2471.662,13.29,0.031,284.9
2024-04-13T02:46:03,42.805,6.029,-0.027,0.016,-0.01,103.0,103.0,101.0,13.3,1505.2,5.4,-0.8,1.8,2471.646,13.29,0.031,300.7
2024-04-13T02:49:03,42.805,6.029,-0.022,0.015,-0.008,103.0,103.0,101.0,13.4,1505.2,8.4,-0.7,1.8,2471.641,13.29,0.026,304.3
2024-04-13T02:52:03,42.805,6.029,-0.019,0.011,-0.009,104.0,103.0,100.0,13.3,1505.2,358.7,-0.7,1.9,2471.672,13.29,0.021,300.1
2024-04-13T02:55:03,42.805,6.029,-0.005,0.028,-0.03,104.0,102.0,102.0,13.3,1505.2,3.5,-0.8,1.8,2471.657,13.29,0.028,349.9
2024-04-13T02:58:03,42.805,6.029,-0.048,-0.006,0.016,103.0,103.0,104.0,13.3,1505.2,353.0,-0.8,1.8,2471.647,13.29,0.048,262.9
2024-04-13T03:04:03,42.805,6.029,-0.026,0.019,0.028,104.0,103.0,102.0,13.3,1505.2,4.4,-0.7,1.8,2471.66,13.29,0.032,306.2
2024-04-13T03:07:03,42.805,6.029,-0.031,0.016,-0.018,103.0,102.0,101.0,13.4,1505.2,358.3,-0.7,1.8,2471.631,13.29,0.034,297.3
2024-04-13T03:10:03,42.805,6.029,-0.013,0.027,0.008,103.0,104.0,102.0,13.3,1505.2,7.0,-0.8,1.8,2471.682,13.29,0.029,334.3
2024-04-13T03:13:03,42.805,6.029,-0.005,0.013,-0.007,102.0,102.0,101.0,13.3,1505.2,351.7,-0.8,1.8,2471.639,13.29,0.013,339.0
2024-04-13T03:16:03,42.805,6.029,-0.031,0.021,0.009,103.0,103.0,101.0,13.4,1505.2,1.6,-0.8,1.8,2471.653,13.29,0.037,304.1
2024-04-13T03:19:03,42.805,6.029,-0.014,0.027,-0.008,103.0,102.0,102.0,13.3,1505.2,8.4,-0.8,1.8,2471.621,13.29,0.03,332.6
2024-04-13T03:22:03,42.805,6.029,-0.024,0.022,0.008,104.0,103.0,102.0,13.3,1505.2,355.1,-0.7,1.8,2471.621,13.29,0.032,312.5
2024-04-13T03:25:03,42.805,6.029,-0.005,0.014,0.004,105.0,102.0,101.0,13.4,1505.2,356.6,-0.8,1.8,2471.598,13.29,0.014,340.4
2024-04-13T03:28:03,42.805,6.029,-0.031,0.022,0.002,103.0,104.0,101.0,13.3,1505.2,0.0,-0.8,1.8,2471.628,13.29,0.038,305.4
2024-04-13T03:31:03,42.805,6.029,-0.016,0.011,0.005,103.0,103.0,101.0,13.3,1505.2,3.0,-0.8,1.8,2471.632,13.29,0.019,304.5
2024-04-13T03:34:03,42.805,6.029,-0.009,0.014,0.002,103.0,102.0,101.0,13.4,1505.2,3.4,-0.7,1.8,2471.606,13.29,0.016,327.3
2024-04-13T03:37:03,42.805,6.029,-0.036,0.021,-0.003,103.0,103.0,101.0,13.4,1505.2,358.3,-0.7,1.8,2471.608,13.29,0.041,300.3
2024-04-13T03:40:03,42.805,6.029,-0.01,0.014,-0.01,103.0,103.0,102.0,13.4,1505.2,1.0,-0.8,1.8,2471.627,13.29,0.017,324.5
2024-04-13T03:43:03,42.805,6.029,-0.014,0.015,-0.001,105.0,102.0,101.0,13.4,1505.2,1.7,-0.8,1.8,2471.606,13.29,0.02,317.0
2024-04-13T03:46:03,42.805,6.029,-0.015,0.018,-0.027,104.0,101.0,102.0,13.4,1505.2,8.6,-0.7,1.8,2471.633,13.29,0.023,320.2
2024-04-13T03:49:03,42.805,6.029,-0.002,0.016,-0.003,103.0,102.0,101.0,13.3,1505.2,357.3,-0.7,1.8,2471.595,13.29,0.016,352.9
2024-04-13T03:52:03,42.805,6.029,-0.029,0.006,0.0,103.0,103.0,102.0,13.4,1505.2,354.3,-0.7,1.8,2471.585,13.29,0.029,281.7
2024-04-13T03:55:03,42.805,6.029,-0.025,0.021,-0.004,104.0,101.0,102.0,13.3,1505.2,358.9,-0.8,1.8,2471.596,13.29,0.032,310.0
2024-04-13T03:58:03,42.805,6.029,-0.009,0.019,-0.011,104.0,101.0,101.0,13.4,1505.2,9.1,-0.8,1.8,2471.584,13.29,0.021,334.7
2024-04-13T04:04:03,42.805,6.029,-0.04,0.02,-0.026,104.0,103.0,101.0,13.4,1505.2,357.2,-0.8,1.8,2471.589,13.29,0.044,296.6
2024-04-13T04:07:03,42.805,6.029,-0.008,0.029,0.02,103.0,104.0,101.0,13.3,1505.2,7.4,-0.8,1.8,2471.609,13.29,0.03,344.6
2024-04-13T04:10:03,42.805,6.029,-0.018,0.022,-0.003,103.0,104.0,101.0,13.4,1505.2,357.9,-0.7,1.8,2471.605,13.29,0.028,320.7
2024-04-13T04:13:03,42.805,6.029,-0.005,0.02,-0.02,104.0,104.0,101.0,13.4,1505.2,1.6,-0.8,1.8,2471.582,13.29,0.02,346.0
2024-04-13T04:16:03,42.805,6.029,-0.021,0.016,0.004,104.0,103.0,101.0,13.4,1505.2,10.0,-0.8,1.8,2471.579,13.29,0.026,307.3
2024-04-13T04:19:03,42.805,6.029,-0.034,0.024,-0.018,107.0,103.0,102.0,13.4,1505.2,354.8,-0.8,1.8,2471.583,13.29,0.041,305.2
2024-04-13T04:22:03,42.805,6.029,-0.02,0.004,0.012,104.0,103.0,100.0,13.4,1505.2,358.9,-0.8,1.8,2471.602,13.29,0.02,281.3
2024-04-13T04:25:03,42.805,6.029,-0.01,0.015,0.029,102.0,103.0,101.0,13.4,1505.2,6.3,-0.7,1.8,2471.577,13.29,0.018,326.3
2024-04-13T04:28:03,42.805,6.029,-0.017,0.013,-0.01,105.0,104.0,101.0,13.4,1505.2,358.9,-0.7,1.8,2471.552,13.29,0.021,307.4
2024-04-13T04:31:03,42.805,6.029,-0.048,0.042,-0.011,103.0,102.0,102.0,13.4,1505.2,359.4,-0.7,1.8,2471.592,13.29,0.063,311.2
2024-04-13T04:34:03,42.805,6.029,-0.031,0.002,0.025,101.0,103.0,101.0,13.4,1505.2,356.6,-0.7,1.8,2471.572,13.29,0.031,273.7
2024-04-13T04:37:03,42.805,6.029,-0.026,0.036,0.002,103.0,103.0,101.0,13.4,1505.2,6.5,-0.7,1.8,2471.606,13.29,0.044,324.2
2024-04-13T04:40:03,42.805,6.029,-0.005,0.0,-0.01,105.0,102.0,101.0,13.4,1505.2,8.9,-0.8,1.8,2471.581,13.29,0.005,270.0
2024-04-13T04:43:03,42.805,6.029,-0.032,-0.013,-0.017,101.0,103.0,102.0,13.3,1505.2,357.4,-0.8,1.8,2471.561,13.29,0.034,247.9
2024-04-13T04:46:03,42.805,6.029,-0.012,0.013,0.003,103.0,104.0,101.0,13.4,1505.2,357.6,-0.7,1.8,2471.602,13.29,0.017,317.3
2024-04-13T04:49:03,42.805,6.029,-0.015,0.037,0.017,103.0,103.0,101.0,13.4,1505.2,359.4,-0.8,1.8,2471.61,13.29,0.039,337.9
2024-04-13T04:52:03,42.805,6.029,-0.01,0.006,0.005,103.0,102.0,102.0,13.4,1505.2,4.7,-0.8,1.8,2471.544,13.29,0.011,301.0
2024-04-13T04:55:03,42.805,6.029,-0.03,0.023,0.005,103.0,103.0,101.0,13.4,1505.2,353.6,-0.8,1.8,2471.581,13.29,0.037,307.5
2024-04-13T04:58:03,42.805,6.029,-0.007,0.024,0.002,103.0,103.0,101.0,13.4,1505.2,6.2,-0.7,1.8,2471.569,13.29,0.025,343.7
2024-04-13T05:04:03,42.805,6.029,-0.011,0.022,-0.001,105.0,103.0,101.0,13.4,1505.2,354.0,-0.8,1.8,2471.581,13.29,0.024,333.4
2024-04-13T05:07:03,42.805,6.029,-0.01,0.024,0.014,103.0,103.0,101.0,13.3,1505.2,3.9,-0.8,1.8,2471.586,13.29,0.026,337.4
2024-04-13T05:10:03,42.805,6.029,-0.032,0.022,0.002,102.0,102.0,100.0,13.3,1505.2,1.7,-0.8,1.8,2471.574,13.29,0.038,304.5
2024-04-13T05:13:03,42.805,6.029,-0.029,0.038,-0.008,103.0,102.0,101.0,13.4,1505.2,3.0,-0.7,1.8,2471.561,13.29,0.047,322.7
2024-04-13T05:16:03,42.805,6.029,-0.014,0.018,0.011,103.0,102.0,101.0,13.4,1505.2,4.3,-0.7,1.8,2471.569,13.29,0.022,322.1
2024-04-13T05:19:03,42.805,6.029,-0.023,0.0,-0.033,103.0,104.0,101.0,13.4,1505.2,1.1,-0.7,1.8,2471.6,13.29,0.023,270.0
2024-04-13T05:22:03,42.805,6.029,-0.01,0.014,0.008,103.0,102.0,101.0,13.4,1505.2,6.4,-0.8,1.8,2471.58,13.29,0.017,324.5
2024-04-13T05:25:03,42.805,6.029,0.014,0.003,-0.005,102.0,103.0,100.0,13.3,1505.2,357.6,-0.8,1.8,2471.638,13.29,0.014,77.9
2024-04-13T05:28:03,42.805,6.029,-0.018,0.027,0.028,102.0,102.0,102.0,13.4,1505.2,359.4,-0.8,1.8,2471.562,13.29,0.032,326.3
2024-04-13T05:31:03,42.805,6.029,-0.029,0.031,-0.007,102.0,101.0,102.0,13.4,1505.2,2.0,-0.8,1.8,2471.581,13.29,0.042,316.9
2024-04-13T05:34:03,42.805,6.029,-0.025,0.007,0.018,102.0,104.0,102.0,13.4,1505.2,3.6,-0.8,1.8,2471.554,13.29,0.025,285.6
2024-04-13T05:37:03,42.805,6.029,-0.043,0.002,-0.008,103.0,102.0,100.0,13.4,1505.2,357.6,-0.8,1.8,2471.604,13.29,0.043,272.7
2024-04-13T05:40:03,42.805,6.029,-0.011,0.016,0.024,103.0,102.0,103.0,13.4,1505.2,1.1,-0.8,1.8,2471.582,13.29,0.019,325.5
2024-04-13T05:43:03,42.805,6.029,-0.021,0.02,0.013,104.0,102.0,102.0,13.3,1505.2,0.0,-0.8,1.8,2471.598,13.29,0.028,313.6
2024-04-13T05:46:03,42.805,6.029,-0.026,0.028,-0.034,103.0,100.0,101.0,13.3,1505.2,6.7,-0.8,1.8,2471.566,13.29,0.038,317.1
2024-04-13T05:49:03,42.805,6.029,-0.027,0.03,0.003,103.0,103.0,101.0,13.3,1505.2,0.0,-0.8,1.8,2471.573,13.29,0.04,318.0
2024-04-13T05:52:03,42.805,6.029,-0.024,0.009,0.001,103.0,103.0,101.0,13.4,1505.2,9.0,-0.8,1.8,2471.552,13.29,0.025,290.6
2024-04-13T05:55:03,42.805,6.029,-0.016,0.019,0.003,102.0,102.0,100.0,13.4,1505.2,3.8,-0.7,1.8,2471.592,13.29,0.024,319.9
2024-04-13T05:58:03,42.805,6.029,0.0,0.007,0.029,102.0,102.0,101.0,13.4,1505.2,1.0,-0.7,1.8,2471.544,13.29,0.007,0.0
2024-04-13T06:04:03,42.805,6.029,-0.012,0.018,-0.02,102.0,103.0,100.0,13.4,1505.2,356.0,-0.8,1.8,2471.629,13.29,0.021,326.3
2024-04-13T06:07:03,42.805,6.029,-0.021,0.016,-0.009,103.0,102.0,101.0,13.4,1505.2,4.9,-0.7,1.8,2471.579,13.29,0.026,307.3
2024-04-13T06:10:03,42.805,6.029,-0.018,-0.004,-0.019,103.0,102.0,101.0,13.4,1505.2,359.4,-0.7,1.8,2471.603,13.29,0.018,257.5
2024-04-13T06:13:03,42.805,6.029,-0.017,0.012,0.035,104.0,102.0,101.0,13.3,1505.2,358.4,-0.8,1.8,2471.579,13.29,0.02,305.2
2024-04-13T06:16:03,42.805,6.029,-0.03,0.014,-0.017,107.0,102.0,102.0,13.4,1505.2,4.3,-0.8,1.8,2471.604,13.29,0.033,295.0
2024-04-13T06:19:03,42.805,6.029,-0.015,0.026,-0.008,102.0,101.0,102.0,13.3,1505.2,8.8,-0.7,1.8,2471.607,13.29,0.03,330.0
2024-04-13T06:22:03,42.805,6.029,-0.034,0.024,-0.014,101.0,104.0,101.0,13.4,1505.2,358.8,-0.8,1.8,2471.626,13.29,0.041,305.2
2024-04-13T06:25:02,42.805,6.029,-0.026,0.016,-0.004,102.0,103.0,101.0,13.3,1505.2,357.8,-0.8,1.8,2471.602,13.29,0.03,301.6
2024-04-13T06:28:03,42.805,6.029,-0.014,0.026,0.0,105.0,103.0,101.0,13.4,1505.2,357.8,-0.8,1.8,2471.631,13.29,0.029,331.7
2024-04-13T06:31:03,42.805,6.029,0.01,0.014,0.057,102.0,103.0,101.0,13.4,1505.2,356.5,-0.7,1.8,2471.577,13.29,0.017,35.5
2024-04-13T06:34:03,42.805,6.029,-0.023,0.011,-0.014,102.0,103.0,101.0,13.3,1505.2,356.6,-0.8,1.8,2471.651,13.29,0.025,295.6
2024-04-13T06:37:03,42.805,6.029,-0.016,0.017,0.001,104.0,102.0,101.0,13.4,1505.2,357.8,-0.7,1.8,2471.597,13.29,0.023,316.7
2024-04-13T06:40:03,42.805,6.029,-0.01,0.022,0.013,102.0,103.0,100.0,13.4,1505.2,9.5,-0.8,1.8,2471.586,13.29,0.024,335.6
2024-04-13T06:43:03,42.805,6.029,-0.009,0.015,0.011,102.0,102.0,101.0,13.4,1505.2,6.0,-0.7,1.7,2471.539,13.29,0.017,329.0
2024-04-13T06:46:03,42.805,6.029,-0.016,0.015,0.0,102.0,102.0,101.0,13.4,1505.2,352.6,-0.8,1.8,2471.605,13.29,0.021,313.1
2024-04-13T06:49:03,42.805,6.029,0.006,0.017,0.028,102.0,103.0,101.0,13.4,1505.2,5.6,-0.7,1.8,2471.62,13.29,0.018,19.4
2024-04-13T06:52:03,42.805,6.029,-0.028,0.016,0.003,103.0,101.0,102.0,13.4,1505.2,5.7,-0.8,1.8,2471.607,13.29,0.032,299.7
2024-04-13T06:55:03,42.805,6.029,-0.003,0.013,0.002,103.0,102.0,101.0,13.4,1505.2,4.7,-0.8,1.8,2471.584,13.29,0.013,347.0
2024-04-13T06:58:03,42.805,6.029,-0.019,0.022,0.016,103.0,102.0,101.0,13.4,1505.2,358.9,-0.8,1.8,2471.634,13.29,0.029,319.2
2024-04-13T07:04:03,42.805,6.029,-0.012,0.01,0.023,104.0,101.0,101.0,13.3,1505.2,5.3,-0.7,1.8,2471.623,13.29,0.015,309.8
2024-04-13T07:07:03,42.805,6.029,-0.015,0.011,0.008,105.0,102.0,101.0,13.4,1505.2,357.4,-0.8,1.8,2471.574,13.29,0.018,306.3
2024-04-13T07:10:03,42.805,6.029,-0.012,0.0,-0.005,105.0,103.0,101.0,13.4,1505.2,2.9,-0.8,1.8,2471.601,13.29,0.012,270.0
2024-04-13T07:13:03,42.805,6.029,-0.013,0.008,-0.02,103.0,103.0,101.0,13.4,1505.2,2.8,-0.8,1.8,2471.658,13.29,0.015,301.6
2024-04-13T07:16:03,42.805,6.029,0.008,0.02,0.032,102.0,104.0,101.0,13.4,1505.2,5.1,-0.8,1.8,2471.62,13.29,0.021,21.8
2024-04-13T07:19:03,42.805,6.029,-0.019,0.014,-0.02,104.0,104.0,100.0,13.4,1505.2,3.5,-0.8,1.8,2471.618,13.29,0.023,306.4
2024-04-13T07:22:03,42.805,6.029,-0.005,0.007,0.053,104.0,102.0,102.0,13.4,1505.2,8.8,-0.8,1.8,2471.614,13.29,0.008,324.5
2024-04-13T07:25:03,42.805,6.029,-0.008,-0.001,-0.008,102.0,102.0,101.0,13.4,1505.2,358.8,-0.7,1.8,2471.593,13.29,0.008,262.9
2024-04-13T07:28:03,42.805,6.029,-0.023,-0.008,0.004,103.0,104.0,100.0,13.4,1505.2,7.7,-0.8,1.8,2471.63,13.29,0.024,250.8
2024-04-13T07:31:03,42.805,6.029,0.002,-0.011,-0.041,103.0,103.0,101.0,13.4,1505.2,352.5,-0.8,1.8,2471.629,13.29,0.011,169.7
2024-04-13T07:34:03,42.805,6.029,-0.016,0.005,-0.018,108.0,103.0,102.0,13.4,1505.2,3.3,-0.8,1.8,2471.623,13.29,0.016,287.4
2024-04-13T07:37:03,42.805,6.029,-0.012,0.004,-0.005,104.0,103.0,101.0,13.4,1505.2,8.9,-0.8,1.8,2471.599,13.29,0.012,288.4
2024-04-13T07:40:03,42.805,6.029,0.001,-0.004,0.016,103.0,103.0,102.0,13.4,1505.2,4.1,-0.7,1.8,2471.611,13.29,0.004,166.0
2024-04-13T07:43:03,42.805,6.029,-0.013,0.0,0.046,102.0,102.0,100.0,13.4,1505.2,352.5,-0.7,1.8,2471.607,13.29,0.013,270.0
2024-04-13T07:46:03,42.805,6.029,-0.012,0.015,0.004,103.0,102.0,100.0,13.4,1505.2,1.6,-0.7,1.8,2471.641,13.29,0.019,321.3
2024-04-13T07:49:03,42.805,6.029,-0.021,0.011,0.004,103.0,104.0,100.0,13.4,1505.2,356.5,-0.8,1.8,2471.605,13.29,0.023,297.6
2024-04-13T07:52:03,42.805,6.029,0.001,0.009,0.012,102.0,104.0,102.0,13.4,1505.2,4.7,-0.8,1.8,2471.612,13.29,0.009,6.3
2024-04-13T07:55:03,42.805,6.029,-0.012,0.012,0.019,104.0,101.0,102.0,13.4,1505.2,357.9,-0.7,1.8,2471.619,13.29,0.016,315.0
2024-04-13T07:58:03,42.805,6.029,0.003,0.013,0.012,104.0,102.0,99.0,13.3,1505.2,4.1,-0.7,1.8,2471.634,13.29,0.013,13.0
2024-04-13T08:04:03,42.805,6.029,-0.001,0.0,0.015,103.0,103.0,101.0,13.4,1505.2,7.4,-0.8,1.8,2471.655,13.29,0.001,270.0
2024-04-13T08:07:03,42.805,6.029,-0.02,0.013,-0.021,104.0,102.0,101.0,13.4,1505.2,4.7,-0.7,1.8,2471.666,13.29,0.023,303.0
2024-04-13T08:10:03,42.805,6.029,-0.005,0.02,-0.008,101.0,103.0,100.0,13.4,1505.2,0.0,-0.7,1.8,2471.635,13.29,0.02,346.0
2024-04-13T08:13:03,42.805,6.029,0.005,-0.001,0.031,103.0,102.0,101.0,13.4,1505.2,1.6,-0.8,1.8,2471.637,13.29,0.005,101.3
2024-04-13T08:16:03,42.805,6.029,-0.01,0.001,0.021,102.0,107.0,100.0,13.4,1505.2,7.7,-0.8,1.8,2471.659,13.29,0.01,275.7
2024-04-13T08:19:03,42.805,6.029,-0.024,0.019,-0.002,104.0,103.0,101.0,13.4,1505.2,7.8,-0.8,1.8,2471.67,13.29,0.03,308.4
2024-04-13T08:22:03,42.805,6.029,-0.002,-0.004,0.017,102.0,104.0,101.0,13.4,1505.2,352.9,-0.8,1.8,2471.617,13.29,0.004,206.6
2024-04-13T08:25:03,42.805,6.029,-0.003,0.013,0.029,101.0,102.0,101.0,13.4,1505.2,357.1,-0.8,1.8,2471.625,13.29,0.013,347.0
2024-04-13T08:28:03,42.805,6.029,-0.02,0.012,0.017,102.0,103.0,101.0,13.4,1505.2,5.4,-0.7,1.8,2471.671,13.29,0.023,301.0
2024-04-13T08:31:03,42.805,6.029,0.001,0.0,0.024,103.0,104.0,104.0,13.4,1505.2,5.0,-0.8,1.8,2471.644,13.29,0.001,90.0
2024-04-13T08:34:03,42.805,6.029,-0.017,0.011,0.008,102.0,101.0,101.0,13.4,1505.2,7.6,-0.8,1.8,2471.641,13.29,0.02,302.9
2024-04-13T08:37:03,42.805,6.029,-0.032,0.004,-0.008,102.0,105.0,101.0,13.3,1505.2,352.8,-0.8,1.8,2471.656,13.29,0.032,277.1
2024-04-13T08:40:03,42.805,6.029,-0.004,-0.008,0.023,103.0,103.0,101.0,13.4,1505.2,3.8,-0.7,1.8,2471.64,13.29,0.008,206.6
2024-04-13T08:43:03,42.805,6.029,0.0,-0.014,-0.007,104.0,102.0,102.0,13.4,1505.2,2.6,-0.8,1.8,2471.674,13.29,0.014,180.0
2024-04-13T08:46:03,42.805,6.029,0.0,-0.005,-0.013,103.0,103.0,101.0,13.3,1505.2,0.0,-0.7,1.8,2471.667,13.29,0.005,180.0
2024-04-13T08:49:03,42.805,6.029,0.007,0.0,0.012,105.0,104.0,101.0,13.4,1505.2,7.9,-0.8,1.8,2471.69,13.29,0.007,90.0
2024-04-13T08:52:03,42.805,6.029,-0.014,0.013,-0.007,103.0,103.0,101.0,13.4,1505.2,355.8,-0.8,1.8,2471.644,13.3,0.019,312.9
2024-04-13T08:55:03,42.805,6.029,-0.009,-0.01,-0.016,103.0,104.0,101.0,13.4,1505.2,358.9,-0.8,1.8,2471.659,13.3,0.013,222.0
2024-04-13T08:58:03,42.805,6.029,-0.001,0.003,0.006,103.0,102.0,103.0,13.3,1505.2,5.8,-0.7,1.8,2471.667,13.3,0.003,341.6
2024-04-13T09:04:03,42.805,6.029,-0.021,-0.018,-0.007,102.0,103.0,101.0,13.3,1505.2,1.7,-0.7,1.8,2471.687,13.29,0.027,229.4
2024-04-13T09:07:03,42.805,6.029,-0.009,-0.011,-0.006,102.0,103.0,100.0,13.3,1505.2,352.0,-0.7,1.8,2471.676,13.29,0.014,219.3
2024-04-13T09:10:03,42.805,6.029,-0.01,0.0,-0.006,103.0,102.0,100.0,13.3,1505.2,1.0,-0.7,1.8,2471.7,13.29,0.01,270.0
2024-04-13T09:13:03,42.805,6.029,0.009,-0.006,0.039,106.0,101.0,102.0,13.4,1505.2,8.7,-0.7,1.8,2471.712,13.29,0.01,123.7
2024-04-13T09:16:03,42.805,6.029,-0.019,-0.008,-0.017,104.0,102.0,100.0,13.4,1505.2,357.0,-0.8,1.8,2471.709,13.29,0.02,247.2
2024-04-13T09:19:04,42.805,6.029,-0.006,0.007,0.004,102.0,102.0,101.0,13.3,1505.2,359.4,-0.8,1.8,2471.682,13.29,0.009,319.4
2024-04-13T09:22:03,42.805,6.029,-0.017,-0.016,0.015,103.0,102.0,100.0,13.4,1505.2,355.6,-0.7,1.8,2471.706,13.3,0.023,226.7
2024-04-13T09:25:03,42.805,6.029,-0.004,0.025,0.011,102.0,102.0,101.0,13.4,1505.2,1.1,-0.8,1.8,2471.649,13.3,0.025,350.9
2024-04-13T09:28:03,42.805,6.029,-0.011,-0.008,0.03,104.0,101.0,100.0,13.4,1505.2,3.5,-0.7,1.8,2471.684,13.3,0.013,234.0
2024-04-13T09:31:03,42.805,6.029,-0.019,0.003,0.003,104.0,103.0,101.0,13.3,1505.2,0.0,-0.8,1.8,2471.68,13.3,0.019,279.0
2024-04-13T09:34:03,42.805,6.029,-0.026,0.01,0.035,104.0,101.0,100.0,13.3,1505.2,8.3,-0.7,1.8,2471.687,13.3,0.027,291.0
2024-04-13T09:37:03,42.805,6.029,-0.01,-0.011,0.004,111.0,102.0,100.0,13.4,1505.2,353.3,-0.7,1.8,2471.687,13.3,0.014,222.3
2024-04-13T09:40:03,42.805,6.029,0.0,0.001,-0.001,103.0,104.0,101.0,13.4,1505.2,2.3,-0.8,1.8,2471.652,13.3,0.001,0.0
2024-04-13T09:43:03,42.805,6.029,-0.011,0.02,-0.016,103.0,105.0,101.0,13.4,1505.2,5.2,-0.8,1.8,2471.681,13.3,0.022,331.2
2024-04-13T09:46:03,42.805,6.029,0.007,-0.017,0.009,102.0,101.0,105.0,13.4,1505.2,2.0,-0.8,1.8,2471.662,13.3,0.018,157.6
2024-04-13T09:49:03,42.805,6.029,-0.029,0.02,-0.014,102.0,101.0,101.0,13.4,1505.2,4.0,-0.7,1.9,2471.65,13.3,0.035,304.6
2024-04-13T09:52:03,42.805,6.029,-0.001,0.0,-0.017,103.0,103.0,102.0,13.4,1505.2,6.4,-0.7,1.8,2471.709,13.3,0.001,270.0
2024-04-13T09:55:03,42.805,6.029,-0.016,-0.013,0.013,103.0,105.0,101.0,13.4,1505.2,359.4,-0.8,1.8,2471.648,13.3,0.02,230.9
2024-04-13T09:58:03,42.805,6.029,-0.019,-0.007,0.008,103.0,102.0,99.0,13.3,1505.2,4.4,-0.8,1.8,2471.683,13.3,0.02,249.8
2024-04-13T10:04:03,42.805,6.029,-0.009,-0.032,-0.011,103.0,102.0,104.0,13.4,1505.2,4.0,-0.8,1.8,2471.683,13.29,0.033,195.7